Panama City, FL

5:47 PM CST on January 22, 2017 (GMT -0600)
Tyndall Air Force Base

Weather History for KPAM - February, 2014

Change the Weather History Date:

Wednesday, February 26, 2014

  Actual Average Record
Temperature  
Mean Temperature 54 °F -  
Max Temperature 64 °F 66 °F 80 °F (2001)
Min Temperature 43 °F 48 °F 42 °F (2004)
Degree Days  
Heating Degree Days 11    
Growing Degree Days 4 (Base 50)    
Moisture  
Dew Point 49 °F    
Average Humidity 74    
Maximum Humidity 82    
Minimum Humidity 49    
Precipitation  
Precipitation 0.77 in - - ()
Sea Level Pressure  
Sea Level Pressure 29.88 in    
Wind  
Wind Speed 5 mph (North)    
Max Wind Speed 15 mph    
Max Gust Speed 23 mph    
Visibility 7 miles    
Events Rain , Thunderstorm    
Averages and records for this station are not official NWS values.
T = Trace of Precipitation, MM = Missing Value Source: NWS Daily Summary

Daily Weather History Graph

Daily Weather History Graph

Search for Another Location

Airport or City:

Trip Planner

Search our weather history database for the weather conditions in past years. The results will help you decide how hot, cold, wet, or windy it might be!

Date:

Astronomy

Feb. 26, 2014 Rise Set
Actual Time 6:11 AM CST 5:39 PM CST
Civil Twilight 5:47 AM CST 6:03 PM CST
Nautical Twilight 5:19 AM CST 6:31 PM CST
Astronomical Twilight 4:51 AM CST 6:58 PM CST
Moon 3:47 AM CST (2/26) 3:01 PM CST (2/26)
Length of Visible Light 12h 16m
Length of Day
11h 27m
Waning Crescent, 10% of the Moon is Illuminated
Feb 26
Waning Crescent
Mar 1
New
Mar 8
First Quarter
Mar 16
Full
Mar 23
Last Quarter

Hourly Weather History & Observations

Time (CST) Temp. Windchill Dew Point Humidity Pressure Visibility Wind Dir Wind Speed Gust Speed Precip Events Conditions
12:03 AM 60.8 °F - 53.6 °F 77% 29.94 in 0.5 mi SSE 1.2 mph - N/A   Light Drizzle
12:08 AM 60.8 °F - 53.6 °F 77% 29.94 in 1.5 mi Variable 1.2 mph - N/A   Light Drizzle
12:13 AM 60.8 °F - 53.6 °F 77% 29.94 in 4.0 mi SW 3.5 mph - N/A   Light Drizzle
12:18 AM 62.6 °F - 55.4 °F 77% 29.94 in 8.0 mi SSW 3.5 mph - N/A   Light Drizzle
12:23 AM 62.6 °F - 55.4 °F 77% 29.94 in 10.0 mi SSW 3.5 mph - N/A   Light Drizzle
12:28 AM 62.6 °F - 55.4 °F 77% 29.94 in 10.0 mi SSW 3.5 mph - N/A   Light Drizzle
12:38 AM 60.8 °F - 53.6 °F 77% 29.93 in 9.0 mi Calm Calm - N/A   Light Drizzle
12:43 AM 60.8 °F - 53.6 °F 77% 29.94 in 6.0 mi NW 1.2 mph - N/A   Light Drizzle
12:58 AM 60.6 °F - 53.4 °F 77% 29.94 in 7.0 mi Calm Calm - 0.00 in   Light Drizzle
1:48 AM 60.8 °F - 53.6 °F 77% 29.90 in 7.0 mi SSE 3.5 mph - N/A   Light Drizzle
1:53 AM 60.8 °F - 53.6 °F 77% 29.90 in 7.0 mi SSE 3.5 mph - N/A   Light Drizzle
1:58 AM 61.3 °F - 54.0 °F 77% 29.90 in 7.0 mi SE 2.3 mph - 0.00 in   Light Drizzle
2:28 AM 62.6 °F - 55.4 °F 77% 29.88 in 10.0 mi South 4.6 mph - N/A   Light Drizzle
2:58 AM 63.9 °F - 56.7 °F 77% 29.89 in 10.0 mi SSW 5.8 mph - 0.00 in   Light Drizzle
3:23 AM 64.4 °F - 57.2 °F 77% 29.87 in 9.0 mi SSW 4.6 mph - N/A Rain Light Rain
3:28 AM 64.4 °F - 57.2 °F 77% 29.87 in 8.0 mi SW 4.6 mph - N/A Rain Light Rain
3:38 AM 64.4 °F - 57.2 °F 77% 29.87 in 8.0 mi SW 3.5 mph - N/A Rain Light Rain
3:43 AM 64.4 °F - 57.2 °F 77% 29.87 in 8.0 mi SW 4.6 mph - N/A Rain Light Rain
3:53 AM 64.4 °F - 57.2 °F 77% 29.88 in 5.0 mi West 4.6 mph - N/A Rain Rain
3:58 AM 64.2 °F - 57.7 °F 79% 29.88 in 5.0 mi West 4.6 mph - 0.04 in Rain Rain
4:08 AM 64.4 °F - 57.2 °F 77% 29.87 in 4.0 mi WSW 4.6 mph - N/A Rain Rain
4:13 AM 64.4 °F - 57.2 °F 77% 29.87 in 4.0 mi WSW 3.5 mph - N/A Rain Rain
4:18 AM 64.4 °F - 57.2 °F 77% 29.87 in 4.0 mi WSW 3.5 mph - N/A Rain Rain
4:33 AM 64.4 °F - 57.2 °F 77% 29.86 in 4.0 mi NNW 1.2 mph - N/A Rain Rain
4:43 AM 64.4 °F - 57.2 °F 77% 29.87 in 5.0 mi WNW 2.3 mph - N/A Rain Light Rain
4:48 AM 64.4 °F - 57.2 °F 77% 29.87 in 5.0 mi Calm Calm - N/A Rain Rain
4:53 AM 64.4 °F - 57.2 °F 77% 29.85 in 4.0 mi NE 4.6 mph - N/A Rain Rain
4:58 AM 64.4 °F - 57.2 °F 77% 29.86 in 4.0 mi Calm Calm - 0.12 in Rain Rain
5:03 AM 64.4 °F - 57.2 °F 77% 29.86 in 4.0 mi Calm Calm - N/A Rain Light Rain
5:08 AM 64.4 °F - 57.2 °F 77% 29.85 in 6.0 mi Calm Calm - N/A Rain Light Rain
5:10 AM 64.4 °F - 57.2 °F 77% 29.85 in 5.0 mi Calm Calm - N/A Rain Light Rain
5:13 AM 64.4 °F - 57.2 °F 77% 29.85 in 5.0 mi Calm Calm - N/A   Light Drizzle
5:58 AM 64.4 °F - 57.2 °F 77% 29.85 in 0.8 mi North 4.6 mph - N/A Rain , Thunderstorm Light Thunderstorms and Rain
6:30 AM 62.6 °F - 57.2 °F 82% 29.87 in 1.0 mi NNW 9.2 mph - N/A Rain , Thunderstorm Light Thunderstorms and Rain
6:47 AM 62.6 °F - 55.4 °F 77% 29.87 in 1.8 mi North 3.5 mph - N/A Rain , Thunderstorm Heavy Thunderstorms and Rain
6:57 AM 62.6 °F - 55.4 °F 77% 29.89 in 2.0 mi NNW 3.5 mph - 0.42 in Rain , Thunderstorm Heavy Thunderstorms and Rain
7:07 AM 62.6 °F - 57.2 °F 82% 29.87 in 2.0 mi North 4.6 mph - N/A Rain Heavy Rain
7:23 AM 62.6 °F - 55.4 °F 77% 29.86 in 2.0 mi NE 4.6 mph - N/A Rain , Thunderstorm Heavy Thunderstorms and Rain
7:43 AM 62.6 °F - 55.4 °F 77% 29.86 in 3.0 mi East 4.6 mph - N/A Rain Light Rain
7:58 AM 62.1 °F - 55.9 °F 80% 29.89 in 4.0 mi NNW 3.5 mph - 0.15 in   Light Drizzle
8:12 AM 62.6 °F - 55.4 °F 77% 29.89 in 5.0 mi NNW 3.5 mph - N/A   Light Drizzle
8:52 AM 62.6 °F - 55.4 °F 77% 29.88 in 5.0 mi NNE 3.5 mph - N/A Rain Light Rain
8:59 AM 62.6 °F - 56.3 °F 80% 29.89 in 5.0 mi North 4.6 mph - 0.01 in Rain Light Rain
9:59 AM 60.8 °F - 53.6 °F 77% 29.89 in 5.0 mi North 10.4 mph - N/A Rain Rain
10:01 AM 60.8 °F - 53.6 °F 77% 29.89 in 5.0 mi North 10.4 mph - N/A Rain Rain
10:22 AM 59.0 °F - 53.6 °F 82% 29.88 in 5.0 mi North 12.7 mph 20.7 mph N/A Rain Light Rain
10:58 AM 57.2 °F - 50.0 °F 77% 29.90 in 7.0 mi North 11.5 mph 19.6 mph N/A   Overcast
11:36 AM 55.4 °F - 46.4 °F 72% 29.90 in 5.0 mi North 12.7 mph 23.0 mph N/A Rain Light Rain
11:53 AM 55.4 °F - 46.4 °F 72% 29.89 in 7.0 mi NNE 13.8 mph 20.7 mph N/A   Overcast
11:58 AM 55.4 °F - 46.4 °F 72% 29.89 in 7.0 mi NNE 9.2 mph 20.7 mph N/A   Overcast
12:59 PM 55.4 °F - 46.4 °F 72% 29.85 in 6.0 mi NE 8.1 mph - N/A Rain Light Rain
1:57 PM 55.4 °F - 46.2 °F 71% 29.86 in 6.0 mi NNE 8.1 mph - 0.00 in Rain Light Rain
1:58 PM 55.4 °F - 46.4 °F 72% 29.85 in 10.0 mi NNE 8.1 mph - N/A Rain Light Rain
2:38 PM 53.6 °F - 46.4 °F 77% 29.82 in 10.0 mi NNE 6.9 mph - N/A Rain Light Rain
2:48 PM 53.6 °F - 46.4 °F 77% 29.81 in 10.0 mi NNE 5.8 mph - N/A Rain Light Rain
2:53 PM 53.6 °F - 44.6 °F 72% 29.82 in 10.0 mi NNE 8.1 mph - N/A   Overcast
2:58 PM 53.6 °F - 45.1 °F 73% 29.83 in 10.0 mi North 10.4 mph - 0.02 in   Overcast
3:03 PM 53.6 °F - 44.6 °F 72% 29.82 in 10.0 mi North 11.5 mph - N/A   Overcast
3:04 PM 53.6 °F - 44.6 °F 72% 29.82 in 10.0 mi NNE 9.2 mph - N/A Rain Light Rain
3:19 PM 51.8 °F - 44.6 °F 76% 29.82 in 10.0 mi North 9.2 mph - N/A   Overcast
3:21 PM 51.8 °F - 44.6 °F 76% 29.82 in 10.0 mi North 8.1 mph - N/A Rain Light Rain
3:58 PM 51.8 °F - 43.2 °F 72% 29.86 in 10.0 mi North 10.4 mph - 0.00 in Rain Light Rain
4:12 PM 50.0 °F - 42.8 °F 76% 29.84 in 10.0 mi North 10.4 mph - N/A   Overcast
4:13 PM 50.0 °F - 42.8 °F 76% 29.84 in 10.0 mi North 9.2 mph - N/A Rain Light Rain
4:45 PM 48.2 °F - 39.2 °F 71% 29.84 in 10.0 mi North 12.7 mph 20.7 mph N/A   Overcast
4:55 PM 48.2 °F - 39.2 °F 71% 29.85 in 10.0 mi NNE 9.2 mph 17.3 mph N/A   Overcast
4:58 PM 48.2 °F - 39.2 °F 71% 29.86 in 10.0 mi North 10.4 mph 17.3 mph 0.01 in   Overcast
5:08 PM 48.2 °F - 39.2 °F 71% 29.86 in 10.0 mi North 10.4 mph 18.4 mph N/A   Overcast
5:43 PM 48.2 °F - 39.2 °F 71% 29.89 in 10.0 mi North 10.4 mph 16.1 mph N/A   Overcast
5:48 PM 48.2 °F - 39.2 °F 71% 29.89 in 10.0 mi North 11.5 mph - N/A   Overcast
5:58 PM 48.2 °F - 39.2 °F 71% 29.90 in 10.0 mi North 12.7 mph 23.0 mph N/A   Overcast
6:08 PM 48.2 °F - 37.4 °F 66% 29.88 in 10.0 mi North 13.8 mph 20.7 mph N/A   Overcast
6:13 PM 48.2 °F - 35.6 °F 62% 29.88 in 10.0 mi NNE 11.5 mph 20.7 mph N/A   Overcast
6:43 PM 48.2 °F - 37.4 °F 66% 29.90 in 10.0 mi North 11.5 mph - N/A   Overcast
6:58 PM 47.5 °F - 37.4 °F 68% 29.91 in 10.0 mi North 12.7 mph 17.3 mph N/A   Overcast
7:43 PM 46.4 °F 40.7 °F 35.6 °F 66% 29.93 in 10.0 mi North 12.7 mph 18.4 mph N/A   Overcast
7:48 PM 46.4 °F 40.7 °F 35.6 °F 66% 29.93 in 10.0 mi North 12.7 mph - N/A   Overcast
7:58 PM 46.8 °F - 35.2 °F 64% 29.95 in 10.0 mi North 13.8 mph 19.6 mph N/A   Overcast
8:58 PM 46.0 °F 39.9 °F 32.2 °F 58% 29.94 in 10.0 mi North 13.8 mph 20.7 mph N/A   Overcast
9:58 PM 45.7 °F 40.6 °F 31.8 °F 58% 29.98 in 10.0 mi North 10.4 mph - N/A   Overcast
10:13 PM 44.6 °F 38.4 °F 30.2 °F 57% 29.96 in 10.0 mi North 12.7 mph 17.3 mph N/A   Overcast
10:58 PM 44.4 °F 37.5 °F 26.2 °F 49% 29.97 in 10.0 mi North 15.0 mph 21.9 mph N/A   Overcast
11:58 PM 43.5 °F 37.9 °F 25.5 °F 49% 29.98 in 10.0 mi North 10.4 mph 18.4 mph N/A   Partly Cloudy